FW8347 Weather Reports


time (UTC)temp
C
wind
direction
speed
KPH
gust
KPH
rain 1hr
cm
rain 24hr
cm
rain mn
cm
humidity
%
barometer
mb
20260509134600 12 198 14.5 24.1 0.00 0.03 0.00 77 1007.8
20260509133046 12 192 12.9 22.5 0.00 0.03 0.00 77 1008.0
20260509131607 11 183 12.9 20.9 0.00 0.03 0.00 78 1008.1
20260509130055 10 196 11.3 19.3 0.00 0.03 0.00 79 1008.2
20260509124544 10 163 14.5 22.5 0.00 0.08 0.00 79 1008.1
20260509123101 9 184 16.1 24.1 0.00 0.08 0.00 79 1008.1
20260509121600 8 183 12.9 24.1 0.00 0.08 0.00 79 1008.3
20260509120047 8 148 11.3 19.3 0.00 0.08 0.00 79 1008.2
20260509114544 7 183 12.9 24.1 0.00 0.08 0.00 78 1008.2
20260509113048 7 360 12.9 25.7 0.00 0.08 0.00 77 1008.2
20260509111600 7 159 12.9 24.1 0.00 0.08 0.00 77 1008.3
20260509110041 7 163 12.9 22.5 0.00 0.08 0.00 78 1008.1
20260509104548 7 150 14.5 25.7 0.00 0.08 0.00 77 1008.1
20260509103059 6 154 16.1 27.4 0.00 0.08 0.00 77 1008.1
20260509101615 6 165 16.1 27.4 0.00 0.08 0.00 78 1007.9
20260509100047 6 153 14.5 24.1 0.00 0.08 0.00 77 1008.1
20260509094549 6 153 14.5 22.5 0.00 0.08 0.00 77 1008.0
20260509093045 6 167 12.9 19.3 0.00 0.08 0.00 76 1007.9
20260509091545 6 148 12.9 19.3 0.00 0.08 0.00 75 1008.1
20260509090053 6 154 12.9 20.9 0.00 0.08 0.00 74 1008.0
20260509084547 6 163 12.9 22.5 0.00 0.08 0.00 73 1008.2
20260509083046 6 161 11.3 19.3 0.00 0.08 0.00 74 1008.5
20260509081547 6 158 11.3 17.7 0.00 0.08 0.00 73 1008.6
20260509080044 6 143 11.3 17.7 0.00 0.08 0.00 74 1008.6
20260509074546 6 165 11.3 20.9 0.00 0.08 0.00 74 1008.8
20260509073054 6 166 11.3 17.7 0.00 0.08 0.00 74 1008.9
20260509071554 6 182 9.7 16.1 0.00 0.08 0.00 74 1009.0
20260509070048 6 175 11.3 19.3 0.00 0.08 0.00 74 1009.2
20260509064557 6 184 11.3 17.7 0.00 0.08 0.00 74 1009.1
20260509063046 6 173 12.9 19.3 0.00 0.08 0.00 74 1009.3
20260509061541 6 187 11.3 16.1 0.00 0.08 0.00 75 1009.4
20260509060047 6 172 9.7 16.1 0.00 0.08 0.00 76 1009.8
20260509054557 5 175 9.7 14.5 0.00 0.10 0.00 76 1010.0
20260509053048 5 175 11.3 16.1 0.00 0.10 0.00 76 1010.0
20260509051543 5 172 9.7 14.5 0.00 0.10 0.00 77 1010.2
20260509050046 5 171 9.7 14.5 0.00 0.10 0.00 75 1010.2
20260509044540 5 173 9.7 12.9 0.00 0.15 0.00 76 1010.4
20260509043045 6 173 8.0 12.9 0.00 0.15 0.00 74 1010.5
20260509041614 6 169 6.4 11.3 0.00 0.15 0.00 74 1010.7
20260509040050 6 162 8.0 12.9 0.00 0.15 0.00 74 1010.7
20260509034543 5 168 6.4 9.7 0.00 0.15 0.15 75 1010.8
20260509033040 5 167 6.4 11.3 0.00 0.15 0.15 77 1010.7
20260509031547 5 140 3.2 8.0 0.00 0.15 0.15 80 1010.8
20260509030046 4 140 4.8 6.4 0.00 0.15 0.15 82 1010.9
20260509024541 5 140 3.2 6.4 0.00 0.15 0.15 84 1010.9
20260509023051 5 140 3.2 6.4 0.00 0.15 0.15 83 1010.9
20260509021546 5 140 3.2 6.4 0.00 0.15 0.15 80 1010.9
20260509020053 6 140 3.2 4.8 0.00 0.15 0.15 78 1011.0
20260509014544 6 140 3.2 6.4 0.00 0.15 0.15 76 1011.0
20260509013054 6 140 4.8 8.0 0.00 0.15 0.15 72 1010.9
20260509011542 7 140 4.8 8.0 0.00 0.15 0.15 73 1010.8
20260509010051 7 140 4.8 8.0 0.00 0.15 0.15 73 1010.5
20260509004545 7 140 3.2 6.4 0.00 0.15 0.15 71 1010.4
20260509003046 8 140 4.8 8.0 0.00 0.15 0.15 70 1010.4
20260509001543 8 102 3.2 6.4 0.00 0.15 0.15 70 1010.4
20260509000044 9 102 3.2 6.4 0.00 0.15 0.15 70 1010.3
20260508234545 9 360 1.6 6.4 0.00 0.15 0.15 72 1010.3
20260508233046 9 360 3.2 8.0 0.00 0.15 0.15 72 1010.1
20260508231542 8 360 4.8 8.0 0.00 0.15 0.15 72 1010.2
20260508230049 8 360 4.8 14.5 0.00 0.15 0.15 74 1010.3
20260508224546 8 103 4.8 11.3 0.00 0.15 0.15 76 1010.2
20260508223046 8 85 6.4 11.3 0.00 0.15 0.15 77 1010.2
20260508221545 8 82 6.4 11.3 0.00 0.15 0.15 77 1010.5
20260508220049 9 79 4.8 9.7 0.00 0.15 0.15 74 1010.6
20260508214544 10 96 8.0 12.9 0.00 0.15 0.15 68 1010.5
20260508213043 9 88 4.8 9.7 0.00 0.15 0.15 75 1010.5
20260508211546 8 99 4.8 14.5 0.00 0.15 0.15 76 1010.5
20260508210045 7 127 9.7 16.1 0.00 0.15 0.15 78 1010.7
20260508204548 7 86 9.7 14.5 0.00 0.15 0.15 81 1010.9
20260508203045 7 80 9.7 14.5 0.00 0.15 0.15 80 1011.1
20260508201546 7 97 4.8 14.5 0.00 0.15 0.15 81 1011.2
20260508200105 7 84 9.7 14.5 0.00 0.15 0.15 80 1011.2
20260508194545 7 89 11.3 14.5 0.00 0.15 0.15 80 1011.3
20260508193100 7 84 9.7 14.5 0.00 0.15 0.15 81 1011.6
20260508191546 7 88 8.0 12.9 0.00 0.15 0.15 81 1011.8
20260508190052 7 45 6.4 12.9 0.00 0.15 0.15 83 1011.7
20260508184545 6 47 8.0 14.5 0.00 0.15 0.15 85 1011.7
20260508183106 6 27 12.9 17.7 0.00 0.15 0.15 83 1011.7
20260508181600 7 24 12.9 16.1 0.00 0.15 0.15 83 1011.9
20260508180045 7 360 11.3 16.1 0.00 0.15 0.15 83 1011.9
20260508174551 7 19 12.9 16.1 0.00 0.15 0.15 83 1011.9
20260508173046 7 360 8.0 12.9 0.00 0.15 0.15 84 1012.1
20260508171547 7 360 6.4 14.5 0.00 0.15 0.15 83 1012.2
20260508170052 7 351 11.3 14.5 0.00 0.15 0.15 83 1012.3
20260508164547 7 327 8.0 14.5 0.00 0.15 0.15 83 1012.5
20260508163039 7 333 11.3 16.1 0.00 0.15 0.15 84 1012.7
20260508161547 7 340 11.3 17.7 0.00 0.15 0.15 83 1012.8
20260508160045 7 336 14.5 17.7 0.00 0.15 0.15 83 1012.8
20260508154605 7 332 17.7 22.5 0.00 0.15 0.15 83 1012.8
20260508153047 7 337 16.1 20.9 0.00 0.15 0.15 83 1012.7
20260508151548 7 325 14.5 17.7 0.00 0.15 0.15 81 1012.7
20260508150050 8 328 9.7 16.1 0.00 0.15 0.15 79 1012.5
20260508144557 7 265 8.0 14.5 0.00 0.15 0.15 79 1012.5
20260508143045 7 281 8.0 12.9 0.00 0.15 0.15 80 1012.4
20260508141541 7 277 9.7 16.1 0.03 0.15 0.15 83 1012.5
20260508140046 6 308 9.7 20.9 0.03 0.15 0.15 85 1012.5